Dewpoint
56 56 56 54 54 54 54 55 55 55 55 55 55 56 56 56 57 57 57 58 58 58 59 60 60 60 61 61 61 61 59 53 49 48 38 42 60 62 64 63 65 65 64 48 35 26 22 22 23 23 33 33 35 31 33 34 38 32 25 27 22 23 17 21 18 21 19 20 21 21 19 18 18 20 22 20 20 22 26 28 31 54 55 55 55 53 57 60
55 56 56 53 54 54 54 54 54 54 55 55 54 54 55 56 56 56 57 57 58 58 59 59 60 60 61 61 60 60 55 51 49 43 33 57 63 62 64 65 64 64 60 38 30 25 22 20 20 27 29 29 38 32 35 32 36 28 24 26 24 25 18 21 20 21 19 20 20 21 20 18 17 19 21 17 18 21 23 24 42 51 54 56 57 58 59 59
54 55 55 53 53 54 54 54 54 54 54 54 54 54 54 55 56 56 56 57 58 58 59 59 60 60 60 61 60 59 53 42 38 36 38 60 62 62 64 65 64 64 47 42 34 24 23 20 24 22 26 23 27 30 33 30 29 33 22 17 23 28 22 22 22 20 20 20 20 20 20 17 18 18 24 17 17 21 21 24 27 47 52 53 55 57 58 59
55 54 54 53 53 53 54 54 54 53 53 53 54 53 54 55 55 56 56 57 57 58 58 59 60 60 60 60 59 57 46 34 26 34 50 61 60 63 64 63 64 62 54 46 40 37 27 22 21 19 25 21 25 31 27 32 23 25 28 22 21 26 20 19 23 22 23 20 19 19 18 17 19 18 17 16 17 18 19 22 24 29 51 54 56 57 57 58
55 55 54 53 53 53 54 54 53 53 53 53 53 53 54 55 55 56 56 57 57 57 58 59 59 60 60 60 59 53 31 9 15 46 51 60 61 62 63 63 64 55 52 51 38 35 30 23 16 22 23 15 26 24 22 26 25 25 21 28 24 24 21 21 23 25 24 19 18 17 16 16 21 20 16 14 13 14 16 17 22 23 54 55 55 56 56 57
56 55 54 54 53 53 53 53 53 53 53 53 53 53 53 54 55 55 56 57 57 57 58 59 59 60 60 59 53 49 21 2 27 49 55 61 61 64 62 63 63 46 39 31 29 29 21 20 16 17 14 16 19 19 17 23 24 19 20 22 23 22 19 22 27 24 20 18 17 15 17 20 19 20 20 13 11 13 18 17 18 24 55 56 57 56 56 56
56 55 54 54 53 53 53 52 52 52 53 53 53 53 54 54 54 55 56 56 57 57 58 58 59 60 59 58 53 39 28 23 47 48 58 63 64 63 64 61 60 41 33 29 28 26 24 20 16 21 16 17 16 15 15 20 20 23 18 20 21 24 23 24 22 25 21 18 18 19 21 19 19 18 19 16 16 14 19 25 23 22 54 56 55 56 56 56
56 55 55 55 55 54 52 52 52 52 53 53 53 53 53 54 54 55 56 56 57 57 58 58 58 59 58 52 29 32 34 27 41 51 58 62 51 49 57 49 45 44 33 28 27 24 22 18 15 22 13 10 13 14 20 16 15 15 17 22 22 23 24 24 23 22 22 22 23 21 19 19 19 18 21 20 19 19 20 30 29 35 53 55 55 55 55 55
56 55 55 55 55 54 52 52 52 52 53 53 53 54 54 54 54 55 56 56 57 57 57 58 58 59 57 48 31 21 20 37 49 50 51 45 44 41 49 43 39 35 37 35 32 27 23 20 20 15 10 13 14 16 18 15 16 15 14 22 23 22 24 25 23 23 23 26 22 19 20 21 22 22 20 20 21 21 27 32 33 43 52 53 54 55 54 55
55 56 55 55 54 53 52 52 52 52 52 53 53 53 54 54 54 55 56 56 56 57 57 58 59 58 52 37 28 16 29 48 50 49 46 43 44 43 44 46 40 38 35 33 30 24 24 23 24 23 19 17 20 18 20 13 11 19 22 23 21 23 23 24 22 22 23 24 22 19 20 21 22 20 16 19 21 25 28 31 33 40 47 50 52 54 54 54
56 55 55 55 54 53 52 52 52 52 52 52 53 53 54 54 54 55 55 56 56 57 57 58 59 57 46 28 17 13 43 48 50 45 46 45 40 42 42 44 44 40 36 39 32 32 26 28 36 31 24 14 22 21 20 21 22 23 23 23 23 23 25 24 23 23 23 21 22 20 21 22 23 23 18 18 22 25 25 29 31 33 38 43 48 51 51 52
56 55 55 54 54 53 52 51 51 51 51 52 53 53 53 54 54 55 55 56 56 57 57 58 58 54 38 29 15 15 43 46 46 44 46 44 41 43 44 44 43 43 35 31 38 43 39 36 33 18 12 22 20 23 23 25 23 23 20 18 21 21 22 24 21 22 23 22 23 23 15 16 24 20 21 22 26 23 23 26 29 30 32 35 40 46 47 49
55 55 55 54 53 52 52 51 51 51 52 52 53 53 53 54 54 54 55 56 57 57 57 58 57 56 34 14 22 41 49 48 46 44 44 47 45 44 46 46 47 42 37 35 36 40 44 38 28 23 27 18 20 13 23 25 24 22 21 20 20 19 19 20 23 25 23 23 26 19 8 10 13 21 21 21 26 22 23 24 25 26 28 30 33 37 41 43
55 55 54 53 53 52 51 51 51 52 52 53 53 53 53 54 54 55 55 56 57 58 58 57 52 51 25 8 40 48 48 50 47 43 44 48 39 41 41 43 46 43 45 40 38 41 44 41 29 26 32 21 20 30 23 22 21 18 20 23 21 17 15 20 23 24 21 25 23 10 10 10 12 13 15 16 24 21 21 22 24 25 25 26 28 30 34 37
55 55 54 54 52 52 51 51 52 52 52 52 53 53 53 54 55 55 55 56 57 58 58 59 51 29 16 22 41 45 58 48 42 43 46 43 39 36 35 38 36 39 39 38 37 42 41 37 30 23 22 26 25 19 19 20 20 17 13 15 21 15 19 24 26 22 20 22 21 15 16 13 11 14 18 25 27 23 20 21 22 24 23 24 25 26 27 29
55 54 53 52 52 51 51 52 52 52 52 53 53 53 54 55 56 56 56 56 57 58 55 54 52 27 17 19 43 53 45 40 39 44 49 49 43 37 37 38 41 37 33 32 43 39 35 31 24 24 24 23 19 20 19 18 18 24 14 18 17 20 20 21 24 26 23 24 24 14 11 15 14 21 23 23 24 23 22 22 22 23 23 23 23 25 26 26
54 54 53 52 51 51 51 51 52 53 53 53 54 54 55 56 56 57 57 58 57 56 54 45 49 37 11 24 36 39 35 41 48 46 44 45 45 40 39 37 33 34 37 36 36 33 29 26 28 23 25 22 22 20 15 15 18 18 22 15 25 15 17 19 23 24 28 23 21 23 19 18 14 17 20 22 27 25 23 22 23 23 23 23 24 23 24 26
55 54 53 53 52 52 51 52 52 53 54 54 54 55 54 56 57 56 57 55 54 52 52 53 36 20 11 32 31 32 43 42 44 44 44 45 45 40 37 31 36 35 33 29 28 24 29 24 28 21 22 22 20 20 14 9 17 18 18 17 16 20 20 18 21 21 25 23 21 22 22 21 21 21 22 22 23 25 24 24 23 23 23 24 24 24 24 24
55 55 54 53 53 52 52 52 53 53 53 54 55 56 56 57 54 51 52 51 24 22 22 25 12 13 16 17 34 45 46 45 44 41 37 40 43 42 39 39 37 28 28 24 23 23 28 28 28 20 17 19 19 18 19 21 21 19 21 19 22 17 19 18 19 22 25 23 21 21 20 19 20 20 20 20 21 23 23 23 24 23 23 23 23 24 25 26
55 55 54 53 54 53 53 54 54 54 55 53 50 51 43 36 37 36 40 41 33 18 24 23 26 28 37 38 42 44 47 45 32 38 44 43 39 36 32 34 36 31 24 24 28 31 34 22 19 16 15 17 19 21 24 23 22 24 26 25 21 21 20 22 25 25 25 17 18 21 21 20 20 20 20 20 20 20 21 21 22 23 23 23 23 24 24 25
55 55 52 52 53 54 54 55 55 54 55 52 51 40 24 28 24 24 33 35 36 35 33 31 30 33 36 42 43 40 31 33 39 39 43 47 41 30 28 29 28 27 28 30 28 28 29 19 21 23 19 16 18 20 17 17 19 19 22 20 18 20 16 19 23 25 25 15 14 19 19 18 17 18 17 17 16 16 16 17 19 20 21 23 24 24 25 24
55 54 53 52 53 54 55 55 55 55 55 52 51 46 41 30 30 33 23 13 24 38 40 40 38 38 39 39 40 43 38 34 36 37 44 42 36 26 28 27 26 22 29 28 28 26 25 20 16 22 29 22 19 19 17 16 22 26 16 23 17 17 22 22 23 25 25 19 17 19 19 17 17 17 17 17 17 17 17 17 17 18 20 22 23 24 25 26
54 53 53 53 54 55 55 55 55 55 50 50 47 46 43 47 44 44 32 22 20 36 33 34 35 38 37 37 40 41 27 29 29 36 40 41 35 32 28 24 26 27 28 25 24 23 18 22 24 28 24 19 19 20 20 22 25 20 16 14 14 21 17 17 18 22 23 20 19 21 22 22 22 23 23 23 22 21 21 21 21 22 20 20 21 22 24 25
55 54 55 55 56 56 56 55 55 54 50 48 45 44 46 48 48 47 35 17 18 32 34 33 37 38 36 33 37 34 23 24 31 30 40 36 28 34 27 23 25 27 24 24 23 19 19 18 23 22 23 19 19 21 18 16 15 22 25 22 21 23 23 19 18 23 22 20 29 21 17 13 20 16 18 17 16 24 25 25 24 24 27 25 27 28 27 23
56 56 57 57 56 56 56 56 53 51 50 48 45 47 49 48 48 45 23 18 19 29 37 33 39 39 38 44 43 32 30 38 41 39 41 35 29 27 25 26 25 25 26 24 20 22 19 21 28 24 28 27 23 17 24 22 15 19 24 24 18 24 26 26 25 16 15 13 21 23 11 15 16 22 21 18 10 7 11 12 12 20 22 23 23 23 24 30
57 57 57 57 57 57 57 51 51 50 46 44 43 48 49 48 46 43 23 19 15 23 27 23 33 27 41 36 40 40 32 27 36 40 41 38 38 28 27 24 24 23 25 24 20 24 19 29 26 25 27 28 26 23 24 23 18 15 13 27 25 27 27 24 19 17 12 6 18 22 6 10 14 11 9 8 11 10 12 16 15 14 15 20 23 24 24 26
57 57 57 57 57 57 51 47 50 45 40 40 48 49 49 48 47 36 17 15 13 24 20 31 27 27 36 35 39 27 16 22 40 39 37 40 32 39 23 24 22 23 25 25 24 20 27 27 26 28 27 26 22 18 26 20 17 13 21 32 29 26 25 24 22 18 17 21 24 26 17 9 11 9 12 14 19 16 16 16 17 18 19 18 19 22 26 30
57 57 57 57 57 56 53 51 46 43 41 46 49 48 48 48 44 28 22 7 6 25 23 22 26 38 37 35 32 16 23 32 30 33 40 41 36 27 24 23 21 24 24 26 19 26 26 27 27 25 27 24 20 23 26 25 19 19 28 30 28 28 28 27 25 24 24 16 16 20 26 12 16 18 19 18 9 7 8 9 12 14 17 19 20 21 24 29
57 57 57 57 57 57 56 53 50 47 49 48 49 49 49 41 31 19 17 4 22 24 31 18 32 36 36 31 26 30 31 34 25 33 41 37 39 26 23 23 23 25 27 23 20 26 31 30 30 28 26 20 26 31 33 27 28 30 31 32 30 29 28 27 24 20 20 9 15 17 20 6 13 15 13 15 12 13 14 13 14 18 23 31 33 27 28 33
56 57 57 57 57 56 55 55 51 50 50 49 49 48 42 32 21 18 5 0 21 16 29 28 28 28 32 27 25 28 29 33 36 36 33 32 33 31 29 27 22 25 27 30 31 30 32 34 34 27 24 25 32 32 33 31 29 33 30 26 25 24 25 24 23 16 9 3 14 19 22 10 8 15 13 10 12 11 15 16 22 29 31 33 34 34 37 37
54 55 57 57 54 54 55 51 52 51 50 49 48 45 35 29 20 12 3 13 32 27 26 26 26 32 28 24 23 25 33 34 34 32 31 32 29 28 27 24 28 26 25 27 27 29 29 30 30 30 35 33 32 30 31 33 32 29 25 22 18 18 20 19 18 19 3 8 15 21 23 15 8 13 18 17 14 15 17 15 20 25 27 31 33 35 36 37
52 54 56 56 56 56 52 50 52 51 50 49 46 38 26 18 20 12 8 20 19 25 24 22 26 29 27 26 27 29 31 33 33 30 29 30 29 24 25 22 24 20 18 21 23 26 25 26 29 31 35 30 29 30 29 32 30 23 19 15 12 7 13 4 10 5 6 6 19 21 23 17 15 12 13 15 16 16 18 18 21 24 24 28 30 34 37 37
52 53 56 56 56 54 52 52 51 51 51 48 42 29 24 20 10 15 18 21 16 26 23 28 28 26 27 25 25 29 31 28 32 29 31 31 29 28 29 27 29 22 16 22 26 22 24 27 29 30 30 33 30 25 26 25 26 20 17 15 10 1 3 -3 4 5 7 13 17 20 21 17 17 18 19 15 14 17 19 20 26 30 27 27 32 35 37 37
52 52 54 55 55 55 54 52 51 50 47 45 32 26 22 11 13 28 19 22 25 30 28 28 26 26 24 21 25 30 24 26 31 28 30 29 28 26 26 28 26 23 25 24 22 23 13 16 23 28 26 31 28 27 27 26 28 20 22 16 15 12 6 -2 -0 -3 6 11 16 22 9 15 7 9 20 21 21 21 20 24 26 27 30 31 32 34 33 34
52 53 54 55 54 54 52 53 52 51 45 42 31 23 17 14 14 16 16 25 29 32 27 29 25 24 23 24 24 28 27 26 31 29 29 27 26 25 24 23 28 27 25 20 22 19 18 20 24 30 30 32 29 30 31 29 27 26 25 19 9 11 17 -2 10 6 7 7 7 12 13 18 15 17 21 23 24 24 24 23 23 19 20 26 30 29 30 30
52 53 54 53 53 53 53 53 52 51 44 38 24 19 16 17 15 22 18 31 31 27 25 25 25 22 21 23 29 26 26 28 30 27 26 27 26 25 27 25 25 24 22 19 23 20 19 17 27 32 32 31 30 28 27 26 19 22 21 17 21 21 19 11 10 17 9 9 10 12 18 19 17 8 12 16 17 16 15 14 14 16 17 24 25 24 26 32
49 51 49 52 53 53 52 52 51 49 45 37 21 16 20 30 33 29 40 30 32 26 25 21 22 20 19 20 24 25 26 31 29 25 23 27 23 26 24 25 27 26 21 20 22 26 19 20 28 29 28 30 32 31 30 31 25 25 20 22 27 26 23 12 5 8 4 4 9 12 11 13 7 11 19 11 12 11 12 12 12 17 18 18 22 23 26 30
47 48 49 49 53 53 53 53 50 48 44 36 22 25 31 29 38 40 39 35 28 28 24 22 23 24 20 22 24 22 27 25 27 25 23 25 20 28 26 25 27 25 23 23 17 20 22 13 20 30 30 32 32 31 29 31 29 25 24 28 19 15 12 18 12 2 5 2 8 12 13 13 12 10 8 9 10 10 11 14 14 13 16 22 24 25 29 32
47 46 43 48 53 53 53 53 50 46 41 33 26 24 34 33 37 37 40 39 36 28 24 26 25 25 24 21 24 23 27 19 27 26 22 25 18 24 23 25 26 26 25 21 14 21 21 14 16 28 30 31 29 29 25 27 30 31 28 24 28 22 19 12 14 10 13 2 -1 11 3 5 17 13 9 9 12 14 12 12 17 17 18 21 23 26 30 34
44 42 41 51 54 53 52 52 48 44 39 29 27 26 36 33 34 36 38 37 36 27 27 27 30 25 26 24 27 23 28 23 26 26 22 25 21 25 23 24 23 27 24 21 20 29 18 16 10 25 28 28 26 28 25 29 27 26 25 23 25 22 24 23 18 14 8 0 2 2 6 12 16 15 9 9 9 12 13 18 22 21 21 24 25 25 30 35
41 41 41 52 53 53 51 48 43 39 35 36 36 35 36 34 38 37 40 39 38 40 34 32 31 24 27 28 27 27 27 26 27 25 23 24 21 16 26 25 27 26 25 24 22 24 18 14 15 26 27 25 26 28 28 30 27 26 24 23 24 23 16 11 16 18 9 5 6 -1 7 12 19 14 8 7 9 15 18 22 25 22 23 24 26 31 34 35
37 32 37 52 52 51 47 40 38 38 35 33 34 36 36 40 38 40 39 39 38 38 41 36 37 31 29 27 28 28 27 26 28 26 26 23 26 24 28 27 27 27 24 22 20 27 21 23 25 22 28 29 29 29 31 30 30 29 25 23 27 24 22 14 11 15 13 16 14 12 5 13 17 15 12 12 17 17 21 22 19 22 25 27 30 33 35 36
33 31 45 51 51 49 44 37 39 35 33 36 41 39 40 39 38 39 38 39 36 39 37 35 35 33 33 32 33 28 28 25 29 27 28 26 27 25 28 30 30 28 26 23 25 27 31 17 16 20 25 26 29 30 31 31 30 28 28 26 26 24 23 20 17 19 19 15 13 11 9 14 18 19 19 21 22 22 25 23 23 27 29 30 31 32 33 33
34 34 42 49 50 47 41 32 32 34 36 39 38 37 41 41 39 39 38 39 36 37 36 36 36 37 34 35 32 28 30 22 27 29 26 28 25 34 36 33 31 28 25 25 21 29 16 22 20 13 13 21 24 28 27 29 29 25 25 27 26 26 25 23 20 18 14 19 19 15 13 14 23 27 24 23 23 22 23 23 27 27 29 29 30 31 31 32
32 33 36 42 48 46 38 39 37 35 35 35 36 35 38 39 41 41 39 39 40 38 36 36 36 37 36 36 33 33 33 28 27 30 30 29 28 36 36 36 33 29 34 36 33 29 22 23 20 16 15 13 14 19 21 25 28 27 27 27 28 27 25 22 19 17 16 19 19 16 15 16 21 22 21 22 23 22 24 25 26 28 28 28 29 30 30 30
28 24 30 31 44 42 42 42 39 37 36 36 35 37 38 37 40 42 41 40 41 41 38 38 39 39 37 35 33 31 31 34 30 28 30 30 32 33 36 35 35 32 36 39 35 27 21 25 21 18 17 15 16 19 24 29 27 26 26 28 27 27 27 25 23 20 19 19 17 20 18 16 17 20 20 21 24 23 23 25 25 27 28 28 29 30 31 31
34 24 27 27 35 38 39 41 38 38 35 38 33 37 36 36 39 40 42 38 42 41 40 38 37 37 36 36 34 33 33 34 35 33 32 32 33 33 36 35 35 36 39 35 36 28 24 22 24 22 21 19 20 24 26 29 27 27 27 27 29 27 27 26 24 21 23 16 19 22 23 21 19 20 20 20 23 25 25 25 26 27 29 30 30 30 32 30
28 30 28 30 31 31 34 35 39 37 37 37 34 37 36 36 37 36 40 41 42 42 38 39 40 38 37 35 35 32 35 33 33 31 33 32 33 33 33 36 33 35 36 34 35 27 27 24 25 24 23 24 27 29 29 28 27 27 27 27 28 28 27 26 26 25 24 22 19 21 23 22 21 21 21 21 23 25 26 26 28 29 29 29 29 30 31 31
35 34 33 32 26 28 34 37 39 38 36 36 35 36 35 35 35 37 38 39 40 39 40 35 37 38 38 38 36 34 34 32 33 34 31 30 31 32 30 33 36 34 33 33 35 35 28 25 30 26 24 26 28 30 29 28 27 28 27 27 28 29 28 27 26 27 26 24 24 22 24 23 23 22 23 25 28 29 29 30 31 31 31 31 30 31 31 31
31 32 30 30 29 28 30 37 38 38 36 37 34 34 35 35 34 36 38 38 35 38 41 37 37 38 38 38 38 35 35 35 35 34 35 34 29 31 32 33 32 33 33 33 35 36 29 26 32 29 24 25 27 30 29 29 29 28 28 28 28 28 29 28 27 26 27 26 26 27 27 27 28 29 30 31 31 31 32 31 31 32 32 31 31 31 32 32
35 35 36 30 26 27 28 32 36 36 35 36 34 35 34 34 34 36 37 39 36 36 39 37 37 38 39 39 38 37 38 38 38 37 38 37 34 35 34 33 38 32 33 33 33 34 33 29 31 29 26 26 29 29 29 29 29 28 28 29 30 28 27 28 28 29 27 26 26 26 26 25 26 30 31 31 31 31 31 32 32 33 32 31 31 31 32 32
34 35 36 34 28 32 26 27 32 35 32 34 35 34 34 33 33 36 34 36 39 38 39 39 38 38 38 38 38 39 39 40 39 39 40 40 41 40 37 40 40 35 32 33 33 33 33 33 31 30 28 27 31 30 30 30 30 28 29 30 31 29 30 28 30 30 30 29 28 27 26 27 29 31 31 31 32 32 32 32 32 32 31 31 32 33 34 34